Regional Weather Roundup
Issued by NWS

Home | Current Version | Previous Version | Text Only | Print | Product List | Glossary On
Versions: 1 2 3 4 5 6 7 8 9 10 11 12 13 14 15 16 17 18 19 20 21 22 23 24 25 26 27 28 29 30 31 32 33 34 35 36 37 38 39 40 41 42 43 44 45 46 47 48 49 50
000
ASUS44 KJAN 231310
RWRMS

MISSISSIPPI HOURLY WEATHER ROUNDUP
NATIONAL WEATHER SERVICE JACKSON MS
800 AM CDT SAT MAY 23 2015

NOTE: "FAIR: INDICATES FEW OR NO CLOUDS BELOW 12,000 FEET WITH NO
SIGNIFICANT WEATHER AND/OR OBSTRUCTIONS TO VISIBILITY.

MSZ001>002-007>008-010>013-018>021-025>028-034>036-231400-
NORTHWEST MISSISSIPPI

CITY           SKY/WX    TMP DP  RH WIND       PRES   REMARKS
CLARKSDALE     FAIR      64  57  77 CALM      30.28S
CLEVELAND      FAIR      66  59  76 E5        30.26R
GREENWOOD      SUNNY     65  52  62 E6        30.26S
GREENVILLE     PTSUNNY   65  57  75 E5        30.25R
OLIVE BRANCH   PTSUNNY   63  55  77 E5        30.30S
OXFORD         FAIR      66  50  55 SE6       30.31S
TUNICA         PTSUNNY   63  55  77 E6        30.28F
$$

MSZ003>006-009-014>017-022>024-029>033-037>039-231400-
NORTHEAST MISSISSIPPI

CITY           SKY/WX    TMP DP  RH WIND       PRES   REMARKS
COLUMBUS AFB   SUNNY     66  64  91 SE8       30.29R
CORINTH        FAIR      63  54  72 CALM      30.32R
GOLDN TRIANGLE SUNNY     64  52  63 SE12      30.28R
STARKVILLE     FAIR      64  55  72 CALM      30.29R
TUPELO         SUNNY     64  52  64 E3        30.30R
$$

MSZ040-058-231400-
CENTRAL MISSISSIPPI

CITY           SKY/WX    TMP DP  RH WIND       PRES   REMARKS
JACKSON INTL   MOSUNNY   69  55  60 SE3       30.26R
JACKSON HAWKNS SUNNY     68  55  63 E5        30.26R
MERIDIAN KEY   SUNNY     67  56  67 NE3       30.28R
MERIDIAN NAS   SUNNY     64  56  75 E3        30.29R
RAYMOND        PTSUNNY   68  63  83 E3        30.25R
VICKSBURG      CLOUDY    67  57  70 SE6       30.24R
$$

MSZ059>079-231400-
SOUTH MISSISSIPPI

CITY           SKY/WX    TMP DP  RH WIND       PRES   REMARKS
BROOKHAVEN     FAIR      68  61  77 E3        30.26S
HATTIESBURG    SUNNY     68  59  73 VRB3      30.26R
MCCOMB         SUNNY     69  60  73 SE6       30.24R
NATCHEZ        SUNNY     70  57  64 SE5       30.23S
PINE BELT      SUNNY     66  55  68 NE5       30.27R
$$

MSZ080>082-231400-
COASTAL MISSISSIPPI

CITY           SKY/WX    TMP DP  RH WIND       PRES   REMARKS
BAY ST LOUIS   SUNNY     72  55  56 MISG      30.23R
BILOXI         SUNNY     73  61  64 E8        30.23R
PASCAGOULA     SUNNY     72  61  68 E5        30.23R
GULFPORT       SUNNY     72  59  63 E7        30.22R
$$


USA.gov is the U.S. government's official web portal to all federal, state and local government web resources and services.